Regional Weather Roundup
Issued by NWS Charleston, SC

Current Version | Previous Version | Text Only | Print | Product List | Glossary Off
Versions: 1 2 3 4 5 6 7 8 9 10 11 12 13 14 15 16 17 18 19 20 21 22 23 24 25 26 27 28 29 30 31 32 33 34 35 36 37 38 39 40 41 42 43 44 45 46 47 48 49 50

000
ASUS42 KCHS 190726
RWRCHS

REGIONAL WEATHER ROUNDUP
NATIONAL WEATHER SERVICE CHARLESTON SC
300 AM EDT SUN APR 19 2015

NOTE: "FAIR" INDICATES FEW OR NO CLOUDS BELOW 12,000 FEET WITH NO
SIGNIFICANT WEATHER AND/OR OBSTRUCTIONS TO VISIBILITY.

NOT ALL STATIONS ARE QUALITY CONTROLLED BY THE NATIONAL
WEATHER SERVICE. USE DATA WITH CAUTION...ESPECIALLY
DEWPOINT OBSERVATIONS.

SCZ027-030-031-034>040-042>050-190800-
...SOUTHEAST SOUTH CAROLINA...

CITY           SKY/WX    TMP DP  RH WIND       PRES   REMARKS
N CHARLESTON   MOCLDY    66  65  96 CALM      29.95F
WATERFRONT PRK NOT AVBL
MOUNT PLEASANT FAIR      66  66 100 CALM      29.94F FOG
PINOPOLIS      NOT AVBL
MONCKS CORNER  CLOUDY    66  64  94 CALM      29.95S FOG
SUMMERVILLE    PTSUNNY   64  64 100 CALM      29.95F FOG
BEAUFORT MCAS  CLOUDY    69  68  96 E3        29.93F
BEAUFORT ARPT  PTSUNNY   68  68 100 CALM      29.93S
HILTON HEAD IS CLOUDY    70  70 100 CALM      29.94F
WALTERBORO     CLOUDY    64  64 100 CALM      29.94F FOG
ALLENDALE      CLOUDY    68  68 100 CALM      29.91F FOG

...SOUTHERN MIDLANDS AND PEE DEE...

CITY           SKY/WX    TMP DP  RH WIND       PRES   REMARKS
GEORGETOWN     NOT AVBL
KINGSTREE      NOT AVBL
ORANGEBURG     CLOUDY    67  64  90 SE3       29.95F
BARNWELL       CLOUDY    70  70 100 SE3       29.93F
AIKEN          CLOUDY    50  50 100 S7        29.97F FOG
MANNING        RAIN      64  61  88 CALM      29.96S
COLUMBIA       CLOUDY    69  65  86 S7        29.94S
SUMTER         CLOUDY    66  66 100 SE2       29.94S
FLORENCE       CLOUDY    66  63  90 CALM      29.97S
MYRTLE BEACH   CLOUDY    68  63  83 E9        29.98S
N MYRTLE BEACH MOCLDY    65  64  97 CALM      29.96F

$$

GAZ063-065-086>088-099>101-113>116-118-119-134>141-150-190800-
...SOUTHEAST GEORGIA...

CITY           SKY/WX    TMP DP  RH WIND       PRES   REMARKS
SAVANNAH ARPT  CLOUDY    70  66  88 S3        29.93F
HUNTER AAF     CLOUDY    70  70 100 SE2       29.91F
FORT STEWART   CLOUDY    70  68  94 CALM      29.91F
STATESBORO       N/A     68  68 100 CALM      29.91F
SYLVANIA       CLOUDY    68  68 100 E6        29.92F FOG
CLAXTON        LGT RAIN  68  68 100 CALM      29.92F

...CSRA...CENTRAL AND FAR SOUTHEAST GEORGIA...

CITY           SKY/WX    TMP DP  RH WIND       PRES   REMARKS
THOMSON        CLOUDY    68  68 100 CALM      29.96F VSB 1/2
AUGUSTA-BUSH   CLOUDY    68  67  96 SE5       29.92F FOG
AUGUSTA-DANIEL CLOUDY    69  67  93 SE6       29.93F FOG
SWAINSBORO     NOT AVBL
VIDALIA        RAIN      70  70 100 CALM      29.92F
EASTMAN        CLOUDY    69  69 100 CALM      29.94F
HAZLEHURST     PTSUNNY   72  72 100 CALM      29.91F
ALMA           CLOUDY    71  69  93 S5        29.92F
WAYCROSS       CLOUDY    74  73  96 CALM      29.92F
JESUP          CLOUDY    72  72 100 S3        29.93F
BAXLEY         MOCLDY    72  72 100 S5        29.91F
BRUNSWICK      CLOUDY    70  68  94 CALM      29.93F
SAINT SIMONS   CLOUDY    71  69  93 CALM      29.93F

$$

SCZ027-028-034-036>038-045-046-048>050-GAZ119-141-190800-
...LAKE AND SUPPLEMENTAL COASTAL OBSERVATIONS...

STATION/POSITION TIME  TEMP    WIND        PRES    WAVE   SWELL
                       AIR SEA DIR/SP/G            HT/PER HT/PER/DIR
                 (UTC) (F)     (DEG/KT/KT) (MB)    (FT/S) (FT/S/D)
UPR LAKE MARION  NOT AVBL
WINYAH BAY       0645   66      50/  4     1013.0F
LAKE MURRAY      0600   68     190/  7/  8 1013.5F
ACE BASIN NERRS  NOT AVBL
FORT PULASKI     0700   69 72  120/  2/  3 1014.1
SAPELO ISLAND    0700   70     180/  2     1013.0F

$$

ANZ835-935-AMZ111-154-330-350-352-354-370-450-454-472-190800-
...C-MAN AND BUOY OBSERVATIONS...

STATION/POSITION TIME  TEMP    WIND        PRES    WAVE   SWELL
                       AIR SEA DIR/SP/G            HT/PER HT/PER/DIR
                 (UTC) (F)     (DEG/KT/KT) (MB)    (FT/S) (FT/S/D)
BUOY 41004       0650   73 75   40/  2/  2 1013.7F   3/ 9   3/ 9
BUOY 41008       0650   68 68  160/  2/  2 1013.9F   2/ 9   2/ 90/ 9
FOLLY BEACH CMAN 0700   68      60/  4/  5 1013.8F
CAPERS NEARSHORE NOT AVBL
FRIPP NEARSHORE  0600   68      80/  4/  6 1014.3F


STATION/POSITION TIME  TEMP    WIND        PRES    WAVE   SWELL
                       AIR SEA DIR/SP/G            HT/PER HT/PER/DIR
                 (UTC) (F)     (DEG/KT/KT) (MB)    (FT/S) (FT/S/D)
5E ST. MARYS GA  0621      71                N/A     2/ 8
FRYING PAN BUOY  0650   72 73   40/  8/  8 1014.8F   4/ 8   3/130/ 8
BUOY 41025       0650   70 76   20/  8/  8 1015.3F   4/ 9   3/ 90/ 9
CAPE LOOKOUT NC  0700   67      20/  7/  8 1015.2R
BUOY 41002       0650   72 75   10/  6/  8 1014.7S   4/14   5/ 50/14
BUOY 41010       0620   73 78   60/  6/ 16 1015.5F
ST AUGUSTINE FL  0700   72 71  160/  4/  4 1014.0F


$$


USA.gov is the U.S. government's official web portal to all federal, state and local government web resources and services.